CAPE
8 7 0 0 0 110 914 408 37 361 353 17 357 673 581 1262 1361 648 1306 958 939 788 1381 473 754 170 991 809 598 1011 1012 392 579 7 25 1116 924 1322 1414 1687 1738 1778 1808 1889 2104 2183 2609 2564 2524 2488 2967 2936 2963 2821 2950 3091 3181 3251 3079 2783 2648 2825 2740 2503 2686 2702 2695 2733 2735 2641 2381 2562 2658 2658 2606 2474 2400 2407 2446 2326 2335 2312 2696 2887 2823 2754 2700 2723 2903 3019 3116 2852 2603 2470 2396 2500 2465
3 3 0 0 146 28 425 902 108 140 175 390 468 812 774 1371 1549 1035 904 1152 1313 1377 760 1313 872 1151 1022 802 1033 821 824 1031 1122 877 733 982 1344 1395 1521 1795 1735 1736 1800 2029 2159 2252 2490 2718 2768 2905 3046 2952 2934 2870 3223 3246 3176 3101 3005 2948 2904 2615 2466 2589 2567 2645 2667 2523 2574 2443 2436 2749 2691 2590 2563 2382 2406 2351 2316 2267 2298 2525 2760 2775 2741 2809 2785 2643 2801 2627 2929 2846 2674 2594 2501 2452 2470
1 1 3 0 102 768 793 522 40 345 320 196 535 842 1032 1366 952 595 1017 944 853 832 1114 1053 1015 548 888 759 794 624 556 792 644 793 1004 1287 1372 1408 1625 1637 1686 1720 1931 2064 2174 2255 2533 2731 2854 2993 3044 2892 2871 2972 3176 3184 3112 2875 2705 2857 2878 2838 2791 2611 2482 2513 2539 2618 2614 2563 2497 2598 2758 2556 2518 2401 2418 2325 2327 2251 2246 2534 2496 2440 2618 2637 2770 2498 2482 2678 2926 2695 2610 2717 2672 2504 2386
0 0 0 39 633 486 308 203 254 278 250 238 237 1086 1026 900 882 758 1019 1300 301 644 857 739 665 529 688 593 475 388 402 690 782 853 1152 1257 1167 1398 1587 1535 1840 1765 1907 2078 2203 2329 2464 2656 2964 2899 2644 2784 2828 2842 2871 2874 2904 2778 2808 2834 2925 2868 2775 2615 2639 2885 2485 2489 2723 2595 2532 2568 2592 2708 2516 2502 2612 2670 2612 2571 2667 2507 2368 2274 2413 2465 2609 2510 2484 2433 2471 2515 2720 2695 2622 2424 2352
751 836 673 567 777 403 396 273 425 320 128 350 497 1280 751 772 1274 977 1565 916 1193 572 435 337 666 1024 499 341 371 442 661 802 887 971 1056 1102 1214 1527 1519 1436 1429 1411 1625 1802 2124 2306 2567 2853 2858 2658 2829 2886 2825 2789 2677 2706 2642 2639 2530 2584 2761 2687 2528 2622 2672 2611 2641 2706 2605 2547 2481 2654 2604 2576 2474 2450 2588 2674 2638 2545 2554 2353 2090 2134 2391 2389 2472 2618 2622 2548 2676 2808 2955 2968 2805 2467 2311
710 760 369 540 462 1438 439 324 46 387 518 820 604 864 1103 855 1236 1087 898 876 618 610 384 505 519 551 685 679 550 656 595 679 808 1003 987 992 1222 1266 1286 1193 1211 1203 1262 1536 1862 2262 2669 2915 2770 2786 2835 2723 2743 2739 2731 2755 2640 2674 2625 2620 2526 2681 2698 2592 2646 2863 2856 2802 2654 2646 2520 2424 2738 2621 2594 2640 2716 2738 2642 2496 2396 2366 2385 2317 1988 2309 2434 2333 2713 2632 2852 3078 3006 3059 2740 2406 2414
681 483 239 654 851 329 296 44 180 503 748 439 980 1444 1149 1096 962 716 664 900 571 821 352 403 253 208 376 368 397 484 562 674 840 910 894 1000 1132 1018 1015 1079 1017 1101 1366 1515 1668 2111 2710 2850 2728 2811 2843 2773 2650 2624 2785 2726 2699 2819 2714 2665 2617 2462 2426 2670 2718 2653 2434 2688 2759 2593 2564 2518 2431 2462 2688 2741 2640 2565 2513 2446 2511 2239 2248 2350 2372 2401 2335 2620 2601 2786 2933 3071 3104 2969 2974 2677 2167
849 1193 1040 94 219 280 327 64 325 919 893 1345 1699 1040 728 765 1189 1169 636 662 325 916 367 396 510 370 301 435 532 466 583 793 852 892 860 812 703 768 793 846 1023 1435 1581 1695 1858 2119 2677 2647 2722 2761 2741 2700 2665 2618 2663 2462 2750 2616 2709 2537 2592 2531 2763 2636 2642 2635 2614 2638 2659 2555 2469 2477 2543 2538 2652 2710 2567 2468 2452 2331 2533 2495 2470 2413 2171 2229 2418 2469 2458 2694 2926 3015 3122 3067 2966 2798 2511
494 1048 1023 186 68 509 210 407 486 1700 1096 1442 1982 1105 1009 1218 210 993 961 996 304 579 326 308 367 339 285 484 558 510 706 765 915 996 902 693 672 761 764 789 1303 1588 1669 1948 2286 2520 2574 2652 2701 2690 2723 2590 2578 2534 2584 2620 2710 2614 2535 2648 2661 2680 2673 2674 2547 2677 2650 2636 2507 2560 2557 2502 2542 2543 2595 2631 2414 2523 2465 2302 2451 2478 2426 2407 2289 2243 2362 2550 2430 2763 2923 2909 3068 3068 2977 2753 2854
355 787 517 382 56 172 557 668 468 1229 1360 1943 2016 973 1182 1208 1081 1404 970 911 620 246 292 379 294 410 460 470 413 535 623 794 918 883 788 731 778 821 834 911 1412 1610 1981 2314 2429 2382 2430 2762 2711 2725 2667 2576 2488 2527 2517 2664 2516 2836 2782 2835 2839 2735 2690 2690 2672 2699 2631 2616 2509 2509 2582 2638 2537 2562 2634 2624 2436 2416 2415 2391 2628 2421 2393 2544 2543 2334 2360 2502 2584 2424 2683 2850 2933 2961 2955 2801 2776
728 993 929 78 93 81 93 610 964 1668 1994 1832 1298 1854 1708 2146 1109 934 760 1248 484 334 520 562 423 513 532 618 454 566 684 796 864 750 692 647 723 828 827 1029 1542 1939 2125 2233 2275 2355 2555 2605 2789 2651 2602 2573 2478 2433 2623 2386 2782 2858 2765 2707 2722 2702 2648 2632 2659 2699 2676 2706 2696 2616 2470 2668 2732 2600 2708 2678 2472 2442 2448 2215 2419 2309 2203 2245 2240 2214 2368 2636 2839 2927 2964 2892 2745 2884 2941 2923 2612
722 697 836 114 56 87 635 872 859 1615 1899 1606 1523 1826 1592 1182 1542 1052 876 684 712 264 403 513 566 616 503 447 342 638 672 778 890 812 677 732 770 724 883 1590 1733 1849 1903 2074 2294 2345 2399 2610 2662 2775 2656 2590 2539 2598 2659 2684 2859 2713 2521 2566 2682 2724 2613 2614 2746 2821 2774 2762 2640 2466 2644 2639 2654 2517 2433 2662 2572 2384 2430 2288 2385 2224 2240 2286 2290 2504 2468 2517 2382 2774 2870 2883 2811 2842 2932 2910 2190
604 977 598 120 466 370 950 1049 1466 1329 880 1232 1330 1471 1631 879 1802 1031 1035 766 394 365 426 547 530 561 505 529 407 494 632 648 700 702 675 751 748 806 1263 1400 1601 1736 1978 2252 2241 2296 2371 2466 2591 2551 2648 2720 2792 2746 2833 2844 2787 2623 2620 2609 2733 2729 2751 2755 2673 2697 2785 2710 2604 2709 2765 2643 2525 2581 2549 2528 2520 2440 2245 2356 2292 2202 2394 2489 2488 2501 2529 2633 2755 2815 2897 2971 3026 2903 2870 2754 2243
510 1048 591 235 1238 793 813 1206 1588 872 1342 866 2685 2000 1463 1755 1408 1062 1189 918 1106 869 451 446 599 531 498 399 287 336 651 619 570 532 573 733 737 892 904 1286 1594 1910 2002 2090 2180 2232 2297 2349 2326 2489 2617 2573 2574 2792 2860 2755 2797 2744 2734 2704 2666 2871 2811 2808 2768 2812 2728 2615 2559 2663 2518 2348 2288 2558 2504 2424 2328 2374 2367 2283 2090 2098 2224 2281 2362 2402 2447 2622 2864 2844 2927 3046 3151 3122 3045 2482 2468
283 1007 753 706 925 1277 1804 1514 1174 919 1375 1529 1961 1730 1371 1492 1382 1610 1036 662 1016 593 266 440 567 569 414 419 340 344 333 428 464 378 470 596 662 699 956 1372 1604 1775 1961 2080 2130 2168 2230 2241 2372 2435 2384 2416 2502 2506 2515 2676 2747 2776 2770 2707 2818 2854 2708 2847 2915 2658 2552 2577 2410 2366 2295 2379 2377 2402 2290 2441 2466 2510 2550 2509 1977 2299 2227 2078 2104 2232 2294 2516 2723 2810 2859 3044 3063 3163 3098 2853 2236
834 1050 671 1115 732 946 735 602 1218 1063 1359 1116 1480 1447 1254 1463 1225 1359 690 1245 883 476 602 517 563 637 440 538 372 275 251 279 276 317 456 509 490 537 1098 1148 1353 1678 1866 1924 2010 2062 2090 2245 2340 2294 2335 2389 2369 2374 2399 2436 2615 2718 2799 2879 2858 2697 2731 2660 2609 2448 2512 2387 2205 2494 2492 2566 2504 2243 2671 2410 2234 2138 2464 2253 2192 1960 2191 2166 2250 2279 2401 2654 2730 2817 2974 3055 3094 3024 3136 3054 2277
1117 1337 804 813 509 835 1296 154 699 702 1339 1196 1508 1665 847 1273 1410 1700 1605 1070 792 723 568 493 507 501 530 598 414 209 245 259 223 258 391 363 313 470 780 966 1406 1616 1717 1789 1769 1890 2132 2250 2240 2258 2296 2305 2311 2260 2254 2250 2625 2620 2691 2835 2810 2638 2524 2362 2452 2457 2351 2148 2534 2529 2402 2043 1970 2382 2607 2259 2390 2814 2313 2288 2202 2322 2422 2388 2344 2390 2461 2520 2600 2806 2821 2917 2894 2960 2798 2639 2875
426 865 682 439 521 402 676 693 559 798 1001 988 994 1250 1100 812 953 900 1386 1042 683 817 586 648 403 540 566 576 357 217 236 215 168 174 227 257 298 336 674 980 1265 1509 1578 1516 1581 1922 2111 2138 2146 2265 2262 2201 2208 2234 2278 2421 2480 2517 2348 2504 2582 2505 2390 2383 2501 2478 2450 2106 2594 2388 2205 2125 2044 2172 2541 2595 2889 2788 2514 2451 2355 2330 2241 2332 2396 2535 2452 2511 2548 2609 2673 2682 2684 2501 2795 2664 3205
7 277 341 177 564 319 908 840 908 750 771 919 955 792 856 846 814 522 544 922 843 672 503 356 329 527 497 371 199 230 247 195 100 74 138 230 263 360 652 820 1106 1320 1340 1446 1688 1899 2018 2018 2118 2198 2141 2131 2193 2192 2288 2336 2292 2324 2423 2374 2531 2575 2494 2900 2452 2534 2204 2299 2293 2385 2706 2312 2070 2319 2630 2775 2958 2514 2672 2523 2436 2318 2399 2274 2384 2451 2491 2495 2501 2612 2716 2671 2609 2449 2443 2436 2653
0 0 6 149 606 1063 1051 503 1120 648 951 1063 1312 983 624 1663 870 634 1068 420 417 396 450 381 423 560 426 291 213 225 238 138 69 44 82 186 298 389 469 714 897 1033 1186 1528 1727 1878 1952 1966 2072 2124 2088 2072 2093 2066 2141 2131 2164 2302 2329 2289 2275 2281 2390 2603 2480 2474 2448 2480 2470 2135 2312 2114 2048 2284 2334 2250 2204 2429 2409 2454 2277 2098 2327 2312 2500 2833 2569 2549 2688 2956 2928 2958 2591 2666 2165 2339 2179
17 0 0 498 568 377 705 1664 1204 1126 740 891 1078 1344 1198 1062 1057 1414 1292 1047 1251 411 527 428 419 534 414 267 253 221 208 128 52 30 64 140 256 419 479 514 720 876 1200 1561 1782 1928 1950 1919 1912 1941 1952 1979 1966 1951 1981 1975 2044 2230 2181 2051 2187 2167 2241 2266 2264 2268 2422 2320 2436 2128 2169 2101 2039 2511 2320 2145 2098 2107 2049 1914 2305 2297 2135 2130 2300 2072 2206 2505 2478 1941 2313 2270 1891 2008 1975 1892 1861
5 16 13 786 513 709 1590 2079 944 702 978 1671 1378 1027 1197 1052 889 977 1201 826 658 693 638 500 380 309 340 346 232 164 200 162 43 27 59 70 207 465 506 481 582 824 1104 1437 1721 1844 1920 1906 1878 1912 1940 1935 1856 1834 1865 2118 2104 2114 1989 2002 2028 2037 2064 2050 2278 1986 2145 2201 2156 1984 1965 1771 1949 2078 1894 1795 2207 2232 2086 2083 2242 2522 2342 2498 2685 1841 1914 2278 1826 2172 2070 2162 1684 1807 1797 1801 1833
0 0 0 578 553 667 906 1399 847 858 82 1417 1259 1181 1079 1040 1118 742 1190 920 1280 1249 710 634 400 334 284 228 119 127 202 159 62 38 74 94 245 452 571 520 571 816 980 1220 1512 1716 1801 1933 1997 1889 1817 1719 1658 1692 1794 2110 2004 1982 1912 1870 1930 2059 1990 1902 2127 2066 1454 1346 1514 1798 1609 1594 1589 1691 1947 2136 2061 1900 1828 1769 2002 2371 2345 2202 2580 2199 2020 2069 2597 2046 1859 2258 1826 1945 1877 1758 1823
0 0 282 703 409 541 744 594 661 620 1542 1596 1302 798 816 779 1270 1020 811 1021 1095 1137 617 641 536 336 250 179 93 108 173 167 124 69 69 121 255 517 553 544 573 703 852 1045 1274 1604 1710 1901 2033 2035 1943 1718 1606 1627 1879 1926 1938 1871 1658 2480 2029 2230 2133 1924 1906 1667 1375 1546 1344 1701 1593 1112 1292 1446 2098 1977 1842 1849 1785 1880 1994 2209 2299 2566 2879 2627 2145 2292 2316 2423 2408 2242 1878 2074 2213 1928 1918
0 0 0 451 174 43 684 941 716 529 978 1309 1150 848 1477 1337 930 839 826 1092 1382 1264 635 603 448 344 279 181 114 120 155 185 164 114 72 26 175 500 611 564 577 624 745 867 1148 1463 1718 2054 2046 2009 1959 1755 1510 1588 1952 1931 1938 1759 1854 1779 1830 2692 2028 1876 1748 1498 1299 1711 1236 1365 1283 1066 1296 1646 1755 1719 1590 1595 1581 1584 1660 1810 1911 2155 2533 2123 1654 2275 2472 2617 2560 2361 1982 1891 2167 2320 1911
0 0 0 0 82 13 827 856 777 662 831 964 1239 1704 1407 870 935 833 867 1090 702 633 557 499 425 369 271 155 147 162 144 230 234 160 65 23 94 287 385 606 539 628 697 722 1075 1390 1704 1940 1878 1817 1825 1758 1643 1572 1912 1909 1819 1548 1613 1693 1936 2814 1908 1579 1592 1115 949 922 1068 1063 1077 800 1075 1524 1601 1488 1555 1298 1340 1565 1836 1726 1661 2102 2380 2070 2428 2074 2028 1919 2361 2492 2176 2040 2190 1955 2517
0 0 0 0 0 195 718 690 867 782 1370 2069 1715 942 1554 1113 1022 548 406 372 598 482 504 437 412 377 345 212 215 196 197 290 328 247 105 56 27 98 210 382 462 631 697 644 693 1216 1632 1646 1649 1776 1845 1884 1648 1298 1673 1762 1682 1527 1608 1601 1914 2025 1748 1313 1344 945 398 597 679 805 984 1126 928 1144 1022 1087 1153 1266 1514 1604 1661 1616 1870 2385 2769 2626 2168 2298 2100 2361 2621 2625 2281 2182 2003 2093 2518
0 0 0 0 0 29 524 570 898 836 1134 965 1259 853 948 1072 803 631 620 591 780 552 438 350 302 317 284 219 212 297 296 327 328 273 142 121 5 4 28 197 289 585 778 634 450 932 1440 1496 1530 1568 1610 1609 1523 1204 1658 1615 1521 1659 1615 1403 1578 1650 1403 1059 1034 602 750 710 969 812 926 1232 1536 1152 1076 1235 1372 1457 1718 1907 2060 2227 2447 2695 2792 2420 2266 2117 2149 2325 2287 2273 2094 2330 2394 2254 2099
0 0 0 0 0 0 382 265 631 791 778 739 885 587 813 906 599 500 666 678 730 487 381 327 326 256 211 202 217 391 421 347 336 270 120 104 4 0 0 64 193 468 719 580 448 813 998 1152 1199 1257 1322 1587 1252 1189 1346 1274 1237 1512 1222 1152 1223 1894 860 949 605 535 508 879 1027 802 1002 1173 1680 1224 1432 1740 2548 2057 2102 2177 2090 2186 2501 2473 2646 2486 2298 1637 1772 1694 2240 2142 2218 2258 2144 2068 1930
0 0 0 0 0 0 0 0 734 892 359 887 720 567 598 933 591 773 634 643 729 511 463 320 310 367 288 248 281 359 351 382 322 278 135 63 25 0 0 3 122 224 618 361 391 591 692 813 1041 1138 1325 1411 1336 1343 1327 1215 1176 1438 1251 1156 1905 1401 1410 1417 1077 644 827 944 1047 759 702 1014 960 925 1292 1632 2031 2093 2122 1944 1756 1672 1808 2743 2634 2553 1714 1905 1916 1800 2204 1773 2029 2336 1847 1890 2114
0 0 0 0 0 0 0 0 809 634 662 775 531 594 573 638 630 628 716 782 766 654 480 319 350 383 366 294 240 284 270 288 397 216 170 70 47 1 0 0 64 79 166 270 281 345 588 848 1016 1090 1472 1359 1924 1499 1382 1170 1184 1277 1100 1434 1533 1549 1499 1800 1604 1322 1248 1077 1160 1183 1043 1039 811 922 1565 1754 1644 1850 2214 2550 2146 2343 2486 2855 2359 2386 1596 1322 1516 1922 2043 1829 1917 1880 2300 2465 2145
0 0 0 0 0 0 0 0 0 200 633 561 302 152 159 404 552 396 698 660 755 598 515 412 385 380 281 353 263 239 188 210 240 156 196 100 34 5 0 0 74 60 105 181 141 184 351 912 955 1053 1267 1163 1526 1234 1034 1152 1191 1085 1351 1927 1430 1953 1468 1807 2174 1724 1465 1554 1684 1738 1371 1292 1192 1200 1673 2009 2424 2485 2109 2230 2415 2866 2994 3121 2625 2014 1830 1677 1984 1893 1917 1394 1240 1494 1694 1390 1621
0 0 0 0 0 0 0 0 0 402 562 487 283 374 320 565 548 415 575 658 558 618 435 446 460 394 350 345 314 264 202 133 122 104 124 59 26 24 0 0 76 58 38 37 43 74 385 740 860 1057 1063 1087 1259 1190 1134 1288 1065 1123 1437 1330 1328 1828 1198 1606 2074 1926 1935 1843 1799 1844 1536 1453 1675 1628 1945 2080 2664 2870 2819 2373 2800 2543 3381 3033 2841 2217 2033 2322 2155 2110 1762 1932 1286 1029 1779 1267 1046
0 0 0 0 0 0 0 0 0 368 781 439 418 369 470 518 523 408 515 879 706 722 476 508 553 396 360 352 342 287 179 128 113 97 78 54 62 67 22 54 83 47 19 2 7 6 610 484 815 977 846 1032 1018 971 995 900 950 1099 1110 1091 1276 1231 1132 1560 1676 1946 2120 2127 2253 2359 2286 2440 2193 2452 2581 2808 2800 2848 2571 2912 2954 3004 3400 3169 3339 2577 2391 2798 1938 1968 1610 1700 1214 1190 1145 1382 1000
0 0 0 0 0 0 0 0 0 144 259 518 356 250 292 394 490 451 613 734 626 791 464 546 572 473 412 441 414 335 236 167 121 62 94 90 112 99 89 19 29 21 51 0 1 0 189 271 751 857 828 946 886 1021 753 1046 767 837 838 854 817 871 581 855 1237 1637 2183 2150 2438 2730 2976 3190 3498 3127 2825 2916 2738 3186 2890 3080 3024 3235 3244 3406 3448 2874 2445 2514 2560 1822 1463 1384 1522 1183 1418 1730 1228
0 0 0 0 0 0 0 0 0 0 33 296 315 276 231 217 454 526 578 734 695 833 661 470 625 647 518 458 452 388 303 266 174 98 131 128 128 106 103 18 7 1 68 0 0 0 48 159 483 603 854 829 782 950 578 862 414 712 427 298 440 706 708 660 1129 1619 2130 2148 2385 2716 2825 3188 3374 2793 2500 2674 3102 2779 2753 3020 3283 3359 3485 3263 3462 2783 2554 2085 1918 2135 2073 1622 2624 3149 3320 2653 1339
0 0 0 0 0 0 0 0 0 0 33 215 296 322 310 257 479 508 638 573 686 842 873 646 778 551 678 518 585 448 375 330 278 211 157 163 182 104 88 9 2 0 54 0 0 0 2 88 424 514 648 771 728 776 422 566 50 668 83 0 0 0 220 723 988 1283 1967 2220 2321 2577 2788 3002 3088 2906 2829 2779 2900 3655 2583 2894 3219 2980 3234 2904 3161 3135 2426 2218 2283 3570 2802 3067 3379 3031 1571 535 723
0 0 0 0 0 0 0 0 0 86 84 241 330 360 352 279 213 420 499 498 606 586 807 711 866 1201 1297 950 590 866 768 329 341 303 200 227 198 98 98 11 4 0 36 2 2 0 0 110 317 423 333 781 695 838 586 663 88 691 76 0 0 0 445 511 557 1040 1822 2256 2162 2407 2649 2864 3180 3309 3201 2770 2878 3118 2690 2886 3093 2554 2823 2815 3053 3330 3367 3490 2735 2737 3573 3186 3344 3274 1806 989 604
0 0 0 0 0 0 0 0 0 72 103 240 282 313 313 244 345 429 391 456 510 646 829 817 796 1217 1254 966 661 592 672 584 358 340 298 286 269 132 89 49 2 0 37 12 21 4 0 150 197 351 458 852 602 1162 908 888 382 868 376 68 0 20 277 183 64 1065 2054 2103 2006 2172 2432 2731 3062 3263 3120 3098 2742 2574 2347 2494 2595 2694 2435 3478 2879 3018 3086 2260 2596 2811 2941 2269 2703 2723 2914 1265 687
0 0 0 0 0 0 0 0 0 32 106 240 215 385 303 295 410 427 364 328 386 534 794 960 883 1098 1059 904 580 537 510 520 449 349 354 334 328 228 94 84 18 0 63 22 49 5 5 308 228 323 602 889 627 1327 1399 1164 718 925 397 170 9 48 36 85 46 1164 1887 1903 1741 1854 2214 2420 2914 3019 2943 3346 3106 2685 2145 2146 2775 2568 2505 3075 2886 2846 3302 2755 2528 2770 3228 3159 3456 1891 1574 445 1320
0 0 0 0 0 0 0 0 0 8 14 237 367 411 289 199 500 419 423 382 315 586 596 1126 1122 1128 1032 931 606 567 558 586 457 352 403 388 377 396 197 114 55 7 54 22 77 8 0 145 344 390 484 1172 880 1316 1630 1305 1140 1091 483 392 281 17 72 2 84 238 1612 1725 1485 1457 2091 2116 2555 2809 3008 3217 3267 3002 2284 2317 2659 2773 2740 2459 2972 2728 3105 3342 2214 2663 3063 2632 2848 1847 2310 437 970
0 0 0 0 0 0 0 0 0 0 0 248 319 270 311 318 319 407 372 355 360 450 714 1269 1256 1253 942 764 487 498 566 516 657 561 298 389 397 437 369 144 75 32 77 20 127 24 20 176 441 490 352 1160 1282 1176 1516 1320 983 888 357 312 229 73 0 0 6 0 1277 1524 1361 1277 1792 2074 2222 2436 2630 2838 2974 3080 2634 2664 2488 3047 2770 3054 2724 2662 2997 3266 2620 2676 2840 2852 3190 2715 2519 2790 423
0 0 0 0 0 0 0 0 0 0 0 254 193 185 378 264 334 350 341 373 408 436 410 1468 1394 1144 936 761 613 446 601 786 1033 810 312 360 394 440 406 232 83 73 107 26 141 31 131 36 540 535 478 632 1546 1185 1346 1318 915 788 313 217 25 33 0 0 0 7 575 1226 1022 1115 1205 1784 1937 2327 2431 2440 2557 2888 2891 3033 2821 3360 3256 3059 2892 2789 2901 3287 2834 2751 3075 2985 2880 3273 3514 3127 365
0 0 0 0 0 0 0 0 0 0 0 0 0 118 342 326 302 239 275 404 418 445 386 1142 1310 1121 902 778 693 598 712 974 980 1085 485 397 374 362 438 234 120 160 126 60 138 116 414 17 654 484 780 581 1270 1312 1127 1117 927 746 289 244 213 16 66 0 36 72 0 339 1002 916 821 1038 1223 1626 2405 2179 2318 2953 2747 3159 3200 3167 3038 3018 2710 3128 3092 3404 2758 2711 2547 2941 3358 4467 3183 3125 2615
0 0 0 0 0 0 0 0 0 0 0 0 0 0 45 219 307 186 307 309 259 243 250 862 1077 932 854 783 658 621 781 944 942 978 674 487 422 408 493 485 428 205 188 141 114 187 485 148 640 616 992 835 1032 1428 1022 998 1118 725 328 243 278 204 886 97 278 831 262 94 944 1014 699 727 782 472 1470 2158 2416 2861 3081 3015 3139 3130 2748 2657 3500 3229 3186 3297 2718 2130 2254 2953 3466 4336 3302 3380 2797
0 0 0 0 0 0 0 0 0 0 0 0 0 0 0 53 204 254 215 251 226 166 306 755 1037 993 811 708 739 757 795 860 868 963 1009 578 510 474 490 506 466 347 249 282 168 242 691 415 560 962 830 1255 1252 1513 1065 980 1014 969 309 365 149 465 905 1010 386 884 1117 352 24 1083 911 742 769 534 976 2088 2566 2675 2980 3004 3044 2949 3048 2988 3155 3133 2960 2572 2662 2552 2449 3322 3761 3645 4083 4308 3569
0 0 0 0 0 0 0 0 0 0 0 0 0 0 0 0 189 308 236 238 168 240 303 903 1040 900 829 786 834 838 807 846 793 923 865 724 586 531 488 472 459 410 340 331 303 366 828 756 602 1167 849 1380 1590 1534 1255 934 987 1028 348 401 215 419 608 1166 612 462 811 1273 342 1155 1023 1022 595 573 739 2356 2246 2778 2780 3029 3087 2906 2905 2958 3232 2629 2595 2014 2892 3162 3218 3553 3309 3302 3063 2962 3104
0 0 0 0 0 0 0 0 0 0 0 0 0 0 0 0 0 157 198 150 212 246 335 628 1198 916 826 791 880 878 724 715 600 801 988 953 660 570 535 494 511 505 392 431 444 600 784 1067 870 1007 1224 1201 1752 1666 1477 1017 1042 1029 473 412 376 400 364 1147 712 494 553 1104 1217 634 1525 1104 829 626 617 2204 2062 2753 2811 2916 2867 2839 2904 2674 2788 2233 2836 1933 3010 2873 3161 3143 3336 3014 2483 2575 2974
0 0 0 0 0 0 0 0 0 0 0 0 0 0 0 0 0 0 166 205 268 246 322 460 1108 1065 838 800 912 898 694 866 997 814 972 963 790 678 567 530 523 540 515 418 461 802 887 1220 1107 1024 1351 1293 1806 1856 1572 1241 1096 1068 748 429 578 520 331 1212 795 667 446 792 731 1282 1463 1122 993 770 761 1182 2427 2228 2816 2857 2616 2693 2684 2829 2817 2046 1855 3001 2909 2650 2806 2917 3108 2692 2827 2710 3354
0 0 0 0 0 0 0 0 0 0 0 0 0 0 0 0 0 0 0 164 214 197 240 610 1022 1070 914 834 915 871 659 828 1110 924 929 826 742 720 613 600 576 579 634 570 678 1027 1096 1267 1352 1092 1302 1437 1759 1977 1656 1369 1186 1198 934 611 649 793 441 849 944 982 582 445 640 1446 1314 1425 1222 947 1092 1127 1716 2187 2707 2766 2634 2674 2872 2488 2961 2244 2127 3081 3603 3298 2768 2499 2785 2856 2827 3187 3063
0 0 0 0 0 0 0 0 0 0 0 0 0 0 0 0 0 0 0 0 84 200 217 648 937 923 832 827 881 803 733 681 813 1028 996 900 840 944 774 708 678 664 715 705 951 1113 1270 1330 1524 1352 1311 1489 1662 2047 1739 1466 1320 1248 1154 850 660 858 590 637 909 1108 879 495 681 930 1636 1367 1410 1389 1447 1664 1284 1939 2647 2671 2658 2533 3246 2504 3085 3169 2907 3105 2979 3055 4356 2498 2615 2888 2930 3119 2978
0 0 0 0 0 0 0 0 0 0 0 0 0 0 0 0 0 0 0 0 0 52 135 385 865 801 921 855 721 761 800 874 840 902 916 939 1063 1189 973 865 942 1065 796 819 983 1234 1431 1445 1630 1554 1483 1539 1577 2057 1801 1552 1366 1282 1259 1039 786 887 898 565 785 1048 1217 718 813 574 1538 1643 1178 1366 1702 1836 1560 1497 2497 2640 2743 2619 2949 3010 2786 2888 3078 3114 3152 2871 3029 3658 3121 3164 2607 3114 3014
0 0 0 0 0 0 0 0 0 0 0 0 0 0 0 0 0 0 0 0 0 0 97 246 574 869 870 763 664 789 814 925 892 784 788 849 1221 1380 1264 1092 1135 1283 1139 1086 1265 1364 1650 1662 1739 1794 1694 1703 1545 1901 1888 1575 1383 1254 1258 1089 826 893 863 669 683 812 1412 1182 1121 785 1127 1744 1603 1097 1093 1512 1666 1828 2233 2502 2594 2564 2774 3114 3095 3105 3125 3110 3121 3255 2980 3199 2744 2927 2798 2651 2757
0 0 0 0 0 0 0 0 0 0 0 0 0 0 0 0 0 0 0 0 0 0 2 388 961 1056 889 755 798 772 803 862 945 899 846 991 1330 1270 1419 1357 1358 1445 1377 1315 1417 1483 1692 1950 1939 1939 1962 1939 1722 1709 1851 1628 1388 1325 1233 1119 861 803 856 781 670 751 905 1635 1483 1279 1215 1579 1863 1706 1188 1294 1162 2193 1945 2972 2390 2396 2827 2835 3252 3219 3231 3301 3185 3111 3296 3215 3193 2864 3349 3133 3049
0 0 0 0 0 0 0 0 0 0 0 0 0 0 0 0 0 0 0 0 0 0 0 656 981 1039 877 818 759 745 826 928 945 962 1092 1438 1397 1361 1372 1517 1462 1552 1539 1401 1486 1590 1751 2075 2253 2186 2158 2198 2066 1871 1859 1729 1445 1379 1349 1214 960 828 800 851 753 873 744 1379 1835 1625 1537 1589 1812 1986 1752 1313 1271 1151 2073 2529 2273 2341 2723 2785 3130 3253 3267 3251 3384 3023 3248 3195 3316 3168 3211 3345 2968
0 0 0 0 0 0 0 0 0 0 0 0 0 0 0 0 0 0 0 0 0 0 0 952 782 909 890 776 770 900 1002 1047 973 898 1364 1478 1434 1366 1307 1412 1550 1517 1556 1560 1581 1716 1858 2110 2471 2477 2438 2426 2405 2190 2168 1971 1664 1431 1447 1365 1155 974 919 889 894 1051 950 1058 1795 1966 1782 1747 1684 2057 2034 1556 1432 1005 2064 2373 2203 2331 2658 2740 2957 3168 3287 3162 3294 3089 3084 3282 3200 3273 3191 3316 3458
0 3 2 0 0 0 0 0 0 0 0 0 0 0 0 0 0 0 0 0 0 0 0 508 672 796 826 742 901 975 1014 962 896 943 1431 1478 1429 1340 1250 1283 1396 1508 1570 1636 1595 1734 1961 2110 2488 2634 2673 2694 2653 2478 2369 2288 2014 1675 1538 1480 1364 1272 1177 1102 1135 1225 1202 1099 1467 2093 2007 1870 1699 1683 2154 1780 1556 1180 1516 2153 2321 2375 2568 2726 2792 3024 3212 3168 3128 3068 3020 3144 3095 3177 3127 3008 3349
0 0 4 5 0 0 0 0 0 0 0 0 0 0 0 0 0 0 0 0 0 0 0 72 751 761 634 760 879 932 986 913 852 1088 1424 1494 1405 1316 1248 1175 1221 1348 1467 1582 1598 1652 1961 2144 2399 2671 2780 2822 2819 2667 2518 2461 2301 2004 1646 1542 1471 1442 1411 1302 1284 1398 1511 1356 1509 1872 2105 1910 1768 1472 1781 1937 1590 1466 1398 1910 2216 2346 2528 2615 2705 2761 3092 3058 3097 2984 2922 3092 2797 2973 2962 2820 3082
Wind_Speed
nan nan nan nan nan 4 6 3 nan 2 1 nan 5 5 9 9 10 6 8 10 4 7 4 2 5 4 5 6 6 2 9 3 4 nan nan 6 9 10 7 7 6 6 5 4 4 5 4 4 4 6 4 4 5 7 7 5 4 2 1 2 2 1 0 1 0 1 2 2 2 3 4 3 3 2 2 2 1 1 1 1 2 2 1 1 2 3 4 4 5 5 4 3 3 3 3 3 3
nan nan nan nan 2 nan 4 4 3 4 1 5 11 6 10 11 10 7 9 9 7 4 6 1 1 2 15 7 5 4 9 8 4 6 2 7 9 7 8 8 8 7 5 5 5 5 5 5 4 4 4 5 6 7 6 5 3 2 2 2 1 1 0 0 0 0 1 1 2 2 2 2 1 1 1 1 1 0 1 2 3 2 2 2 2 3 3 3 4 4 3 2 3 3 3 3 3
nan nan nan nan 6 5 4 3 nan 4 4 8 10 7 7 10 10 8 7 12 12 5 3 3 8 10 11 4 5 2 0 3 16 9 5 11 11 7 10 9 8 7 6 5 5 5 7 6 5 6 6 6 7 6 5 5 4 4 3 2 0 0 1 1 0 1 1 2 0 1 1 1 1 1 1 1 1 2 3 3 4 5 4 3 4 5 4 3 4 3 3 3 3 3 4 4 4
nan nan nan nan 5 5 3 4 3 2 7 11 12 10 7 7 12 8 9 13 12 4 6 12 11 7 8 9 7 13 5 2 6 14 6 11 8 10 10 9 7 6 6 5 5 6 8 6 6 6 7 7 8 8 7 6 5 4 3 2 1 1 0 1 2 1 1 2 2 2 1 1 1 1 2 2 2 3 4 5 5 6 5 6 6 5 4 4 5 5 4 4 4 4 5 5 4
8 11 10 1 3 5 2 1 3 2 11 12 12 11 7 6 14 7 8 6 13 11 7 6 3 6 13 13 7 3 6 7 6 5 5 7 14 10 10 8 7 7 5 4 4 6 7 7 7 7 7 8 8 8 7 6 5 5 4 3 2 1 0 2 3 2 2 3 3 3 2 2 2 3 3 4 4 5 4 6 7 7 7 6 5 5 5 3 4 4 4 3 3 4 4 4 4
9 10 6 1 2 3 2 2 nan 9 12 8 9 7 7 6 9 8 4 3 9 18 8 7 7 8 5 5 3 7 11 6 8 7 9 9 17 14 11 7 6 5 4 4 4 7 8 8 8 8 8 9 9 8 7 6 6 5 5 3 1 1 1 2 3 3 4 4 4 3 3 3 3 4 4 4 5 6 6 7 9 8 7 5 6 5 5 4 3 3 3 3 2 3 3 3 3
6 4 5 5 1 3 4 nan 7 10 14 10 9 9 8 8 6 6 8 4 13 21 6 11 14 13 9 7 11 7 5 11 7 10 9 13 16 14 11 7 7 4 2 4 6 7 8 8 8 9 9 10 9 9 8 7 6 6 5 4 3 2 3 3 4 4 4 5 4 4 4 4 5 6 5 6 6 7 8 9 10 10 8 7 6 5 4 4 4 3 3 3 3 2 2 2 2
9 2 5 nan 4 2 4 nan 9 7 10 10 10 11 10 7 8 8 5 8 9 7 10 11 7 11 13 7 8 10 13 6 9 12 15 14 15 14 9 7 5 3 2 5 7 7 7 8 9 9 10 10 10 10 9 8 7 6 6 5 6 5 3 3 4 4 4 4 5 5 5 6 6 6 7 7 8 9 9 9 11 11 10 8 6 6 5 5 5 3 3 2 2 2 2 2 1
4 2 4 1 nan 2 4 8 11 8 13 10 7 13 7 9 2 9 5 9 6 2 12 16 13 13 7 13 8 9 9 16 13 15 16 15 14 11 5 6 4 3 3 5 6 7 7 9 9 9 10 10 10 9 8 8 7 6 6 6 5 4 4 4 4 5 4 4 5 6 6 6 7 7 8 8 8 9 9 10 10 10 9 7 6 5 5 4 4 4 3 2 2 1 1 2 1
2 1 3 2 nan 5 4 7 10 10 14 13 12 8 8 7 2 6 7 3 2 6 8 12 9 14 11 10 11 10 11 18 17 14 15 15 14 11 9 9 7 6 3 4 6 6 8 8 9 9 10 10 10 9 8 7 7 6 5 5 5 5 4 4 4 4 4 5 5 6 7 6 7 8 9 9 9 9 9 9 10 10 8 6 5 5 4 4 4 3 3 1 1 1 1 2 1
4 3 1 nan nan nan nan 12 13 10 11 12 8 6 7 7 2 6 5 2 2 9 15 16 13 16 10 7 6 11 19 19 17 16 15 12 10 10 8 8 7 5 4 5 5 6 6 7 10 10 10 10 9 9 8 7 7 6 6 5 5 5 5 5 5 4 5 5 6 7 7 7 8 9 10 10 10 10 10 9 9 8 7 7 6 4 4 4 3 2 1 1 0 2 2 1 2
4 2 0 1 nan nan 7 10 16 14 12 8 8 7 6 7 12 7 7 2 3 11 12 7 6 14 10 10 11 16 19 17 14 11 11 11 7 8 6 3 6 5 5 5 4 5 6 6 6 9 11 11 10 9 7 7 6 6 6 6 6 5 5 6 6 6 6 6 7 7 7 7 8 9 10 10 10 11 10 9 7 8 9 8 7 6 5 4 3 2 2 1 2 3 4 2 2
4 2 1 0 4 4 9 10 15 13 12 8 7 8 7 7 11 7 5 5 8 9 8 11 15 10 10 8 11 19 19 18 16 12 10 7 6 4 5 5 6 5 4 3 4 4 4 6 6 7 9 12 10 9 8 8 7 7 7 6 6 6 6 6 7 7 7 7 8 8 8 8 9 8 9 10 10 10 9 9 10 9 10 10 10 8 6 4 4 3 4 3 4 4 4 3 2
3 2 3 2 3 8 8 9 11 10 7 9 8 6 5 4 9 9 7 2 3 4 11 15 11 10 12 10 11 14 16 19 18 15 9 9 6 5 8 5 6 4 4 3 3 3 4 5 6 7 8 8 7 6 8 9 8 7 7 6 6 6 6 6 7 7 7 7 8 8 8 8 9 9 9 9 9 9 9 9 9 12 12 12 11 9 8 6 5 5 5 5 5 5 5 4 2
4 4 2 4 6 6 4 4 10 9 9 8 7 9 8 6 7 10 13 2 2 5 12 11 12 10 11 17 13 14 18 22 20 16 12 9 8 7 8 4 5 4 3 3 3 4 4 5 5 7 9 8 7 8 8 7 9 8 7 7 6 6 6 6 7 7 7 7 7 7 7 7 8 8 8 7 8 9 9 10 12 12 13 11 10 9 9 8 7 7 6 7 8 8 8 6 3
8 6 2 2 3 3 3 3 4 7 8 7 5 12 13 13 10 11 9 15 5 4 5 8 10 1 15 6 15 19 21 21 18 17 13 11 8 6 7 6 3 2 2 3 3 4 4 4 6 8 8 8 8 8 7 7 6 8 7 7 7 6 6 7 7 7 6 6 6 6 5 5 6 6 7 7 8 8 9 10 11 11 11 10 9 9 9 8 8 8 8 8 10 10 10 9 6
10 9 3 2 4 2 4 1 5 6 7 9 10 9 10 12 12 12 13 16 10 8 6 11 5 14 15 12 16 21 20 18 17 18 13 6 4 3 3 2 1 2 4 4 4 3 3 5 6 7 7 7 6 7 7 7 6 7 6 7 7 7 7 7 6 6 5 4 3 4 4 8 10 9 7 9 6 9 9 11 10 10 10 9 9 8 8 8 8 8 9 11 11 13 11 10 10
11 10 4 4 4 3 3 5 4 3 6 7 13 9 8 7 8 8 6 17 11 8 7 8 12 10 14 14 16 20 17 17 18 18 13 6 3 3 3 2 3 4 4 4 3 3 5 6 6 6 7 6 6 7 7 8 6 5 6 7 7 7 7 6 5 7 6 8 3 6 8 9 9 9 8 7 10 9 10 10 10 10 9 9 9 8 8 8 8 8 10 10 12 11 13 15 14
nan 8 5 5 2 4 4 4 6 5 10 4 3 5 3 3 1 6 7 10 11 8 8 13 15 16 17 16 19 21 18 14 nan nan 16 12 6 5 3 2 3 4 4 3 3 3 5 6 5 5 5 5 5 6 7 8 6 7 7 7 8 7 7 7 9 8 10 7 9 9 10 9 8 8 8 8 10 10 10 10 10 9 9 8 8 8 7 8 8 9 11 11 11 13 15 16 16
nan nan nan 2 2 1 4 6 4 6 12 10 7 6 3 2 5 6 5 6 6 9 9 13 16 20 20 18 19 21 17 15 nan nan nan 14 10 7 5 5 4 4 2 3 2 4 4 6 5 4 4 5 6 6 6 7 7 7 8 8 9 9 9 10 9 9 8 8 9 11 10 8 8 9 10 11 10 10 9 10 11 10 9 8 7 7 8 8 8 8 10 11 13 15 16 16 15
nan nan nan 6 5 4 6 7 3 2 5 6 4 3 0 2 1 5 1 3 7 6 8 13 20 21 19 19 19 20 19 17 nan nan nan 14 10 6 6 6 5 3 2 1 3 3 4 4 4 3 4 5 5 5 5 7 7 7 8 7 8 9 9 9 7 8 8 10 11 12 10 9 9 11 9 8 8 10 10 9 9 9 9 9 8 9 8 10 10 10 11 12 13 15 16 16 16
nan nan nan 7 6 3 9 9 2 2 6 5 7 6 3 3 5 1 2 1 5 2 8 14 18 20 22 20 19 17 20 16 nan nan nan nan 10 7 5 5 4 4 3 2 3 3 3 4 3 3 3 5 5 5 6 7 6 7 7 8 8 9 8 7 7 9 10 11 11 9 7 8 9 10 9 10 9 8 7 8 9 10 10 10 11 10 10 10 12 11 11 12 12 15 18 16 17
nan nan nan 10 7 5 8 8 7 6 nan 9 7 4 4 4 7 5 8 5 4 4 12 20 19 20 20 18 18 16 19 17 nan nan nan nan 9 7 5 5 5 5 4 3 2 3 2 3 3 3 4 4 4 5 6 7 8 7 7 8 8 9 8 8 9 7 8 12 9 8 6 10 9 9 10 10 8 7 7 8 9 11 11 11 11 10 9 9 9 8 11 11 11 15 17 17 18
nan nan 14 7 7 5 7 8 9 7 9 12 15 10 5 6 11 8 11 12 12 9 14 19 18 18 16 17 nan 15 16 16 16 nan nan 11 12 10 7 6 4 3 3 5 3 2 3 2 3 4 5 5 6 5 6 7 8 7 7 8 8 9 9 10 8 6 6 9 10 8 8 11 10 11 11 10 9 7 9 10 11 11 12 12 11 10 9 10 7 9 11 11 12 14 17 19 19
nan nan nan 6 4 nan 11 5 6 10 8 9 16 14 13 12 14 12 9 16 12 7 15 19 19 18 16 16 13 13 13 12 14 10 nan nan 11 10 7 3 3 4 5 6 4 4 4 4 5 5 6 6 7 6 7 8 8 7 7 7 8 10 10 10 6 2 4 10 11 10 9 9 10 12 11 10 11 9 11 13 13 14 13 14 11 10 11 11 10 10 11 12 13 15 18 20 19
nan nan nan nan nan nan 14 10 6 11 9 11 13 11 8 7 13 14 18 14 9 10 12 19 18 19 18 17 12 14 13 13 12 10 nan nan nan 11 9 4 4 5 6 6 6 4 4 5 6 6 7 8 7 6 8 8 8 6 6 7 7 8 11 8 5 2 5 7 8 9 11 9 11 13 12 11 12 13 13 15 15 16 15 15 13 13 12 10 11 10 13 15 15 17 18 20 19
nan nan nan nan nan 13 16 12 17 13 12 13 14 12 5 4 3 7 15 20 11 17 14 18 20 19 17 16 12 11 15 15 12 9 6 nan nan nan 8 6 6 4 6 6 5 4 4 6 5 6 7 8 8 6 8 8 7 5 6 7 7 10 11 7 5 6 7 9 8 8 10 9 9 9 9 12 12 13 14 16 18 17 17 16 14 12 11 11 11 14 15 16 17 18 19 20 20
nan nan nan nan nan nan 16 18 24 13 11 16 14 14 10 1 3 5 10 15 15 16 17 17 19 18 17 16 13 8 12 13 9 8 10 6 nan nan nan 6 5 5 5 6 4 4 7 7 6 7 8 9 8 6 7 7 6 5 6 7 9 11 12 5 6 8 9 11 9 8 9 9 9 9 11 13 13 14 16 18 19 18 17 16 15 14 13 13 14 15 16 17 18 19 20 21 21
nan nan nan nan nan nan 20 21 23 16 10 15 18 20 10 4 1 6 12 14 15 15 17 16 18 16 17 17 14 9 9 12 8 5 9 3 nan nan nan nan 5 5 3 5 5 6 8 6 6 7 8 7 7 6 7 7 7 6 7 8 10 11 9 3 6 9 9 10 10 10 10 10 10 12 13 14 14 15 17 17 18 19 18 16 16 16 15 16 15 15 17 18 19 20 20 20 20
nan nan nan nan nan nan nan nan 31 24 9 18 19 14 8 9 6 11 14 12 12 13 15 15 16 16 15 15 14 13 7 12 8 6 8 nan nan nan nan nan 7 4 2 2 4 6 5 3 4 5 6 8 7 5 6 6 6 5 7 7 9 9 6 4 6 10 9 10 11 12 12 12 11 13 14 15 15 16 17 17 19 20 19 18 17 17 15 15 14 15 17 18 21 20 20 21 22
nan nan nan nan nan nan nan nan 33 28 20 20 18 17 6 9 11 15 14 15 15 11 10 14 16 16 14 15 14 11 11 10 10 6 7 nan nan nan nan nan nan nan 2 3 5 5 5 3 4 4 6 7 5 4 5 4 4 5 5 6 9 9 7 6 7 8 9 9 11 13 14 13 12 14 16 16 17 17 17 18 19 19 18 17 16 17 16 15 15 15 17 18 20 21 21 22 23
nan nan nan nan nan nan nan nan nan 29 21 23 24 18 10 8 14 16 17 15 17 12 8 10 12 12 15 15 14 10 11 11 12 12 9 nan nan nan nan nan nan nan 6 5 3 5 3 4 3 3 6 5 4 4 4 3 4 5 5 6 9 8 8 7 7 8 8 9 10 12 14 15 14 15 16 17 16 16 16 17 18 18 18 17 17 17 16 16 17 18 19 16 16 19 21 24 23
nan nan nan nan nan nan nan nan nan 37 32 26 24 20 15 9 16 17 20 18 15 14 10 12 13 13 16 14 13 9 10 10 10 12 10 nan nan nan nan nan nan nan nan nan nan nan 2 6 3 5 7 5 4 5 5 4 6 5 6 7 9 8 8 9 8 7 8 9 10 11 14 14 13 14 14 15 15 15 15 16 17 18 18 16 16 16 15 16 17 19 19 17 16 20 22 23 23
nan nan nan nan nan nan nan nan nan 36 35 29 20 25 18 16 19 18 23 20 16 12 12 14 13 10 14 13 13 10 7 8 8 nan nan nan nan nan nan nan nan nan nan nan nan nan 4 4 2 5 5 3 4 5 5 5 7 5 5 7 9 9 8 10 10 7 8 9 10 12 13 13 12 12 13 14 14 14 14 15 17 19 16 15 15 15 16 16 17 17 18 19 19 21 23 22 23
nan nan nan nan nan nan nan nan nan 27 37 35 24 23 27 26 24 22 23 23 18 13 14 13 12 13 12 14 13 11 8 7 7 nan nan nan 9 nan nan nan nan nan nan nan nan nan 4 3 3 4 3 2 3 4 4 4 6 5 5 7 9 9 8 10 9 8 7 8 9 11 12 12 11 11 12 13 14 13 12 14 16 17 15 15 14 14 15 16 17 16 17 21 23 22 22 22 24
nan nan nan nan nan nan nan nan nan nan nan 37 30 25 29 31 28 27 25 23 16 19 15 12 13 14 11 14 11 10 11 9 6 nan 8 8 7 9 7 nan nan nan nan nan nan nan nan 4 4 2 2 1 2 3 3 3 4 5 5 7 8 10 9 9 8 8 7 8 9 9 11 11 11 11 12 13 13 11 11 13 14 14 15 14 14 13 13 15 16 17 20 20 21 22 22 21 16
nan nan nan nan nan nan nan nan nan nan nan 31 29 31 36 32 30 27 22 25 20 27 8 12 13 13 12 13 11 10 13 11 9 10 8 9 10 9 nan nan nan nan nan nan nan nan nan nan 5 4 1 1 2 3 3 3 nan 5 nan nan nan nan 9 9 7 8 8 9 8 9 9 10 10 11 12 13 13 12 11 12 12 12 14 14 14 14 14 15 16 16 17 18 19 18 18 17 15
nan nan nan nan nan nan nan nan nan nan nan 28 29 33 35 32 34 29 23 21 19 22 16 13 11 13 15 16 16 14 11 11 12 11 9 9 10 nan nan nan nan nan nan nan nan nan nan 7 6 4 3 1 1 2 3 3 nan 6 nan nan nan nan 8 8 8 8 8 8 8 8 9 9 9 11 11 12 13 11 10 11 11 11 12 13 13 14 13 13 13 14 15 15 15 16 18 16 14
nan nan nan nan nan nan nan nan nan nan 24 29 34 35 31 31 38 32 27 22 16 14 18 16 13 12 13 12 14 14 14 10 10 11 12 10 10 9 nan nan nan nan nan nan nan nan nan 7 5 6 4 3 1 1 1 4 6 6 5 nan nan nan 8 8 nan 6 7 8 8 8 8 9 10 10 10 11 11 11 10 10 11 11 12 11 11 12 10 10 12 13 13 13 15 15 16 14 10
nan nan nan nan nan nan nan nan nan nan 16 28 32 36 35 36 34 28 26 25 17 17 20 19 16 13 11 11 14 16 12 9 4 11 14 14 12 7 nan nan nan nan nan nan nan nan nan 8 7 6 5 4 2 0 2 4 6 6 4 4 nan nan nan nan nan 2 6 6 7 7 7 8 9 10 11 11 12 11 11 11 10 11 11 10 9 9 9 10 11 11 11 12 12 13 14 13 11
nan nan nan nan nan nan nan nan nan nan nan 32 36 38 37 37 32 28 28 25 21 22 20 21 18 13 11 13 15 13 8 7 5 5 13 16 14 9 9 8 nan nan nan nan nan nan nan 9 8 7 6 5 3 2 2 3 4 6 6 4 4 nan nan nan nan 3 4 5 5 7 7 8 9 10 10 11 11 11 12 11 9 10 10 10 7 8 8 9 9 9 9 10 10 10 13 13 11
nan nan nan nan nan nan nan nan nan nan nan 24 39 36 33 31 30 32 29 25 20 21 19 19 18 15 12 12 11 7 4 6 8 5 12 17 16 11 11 9 nan nan nan nan 8 nan nan 11 10 9 7 6 4 4 3 2 4 5 5 3 3 nan nan nan nan nan 4 4 6 7 6 7 8 8 9 10 10 10 11 11 9 8 10 8 8 8 8 6 6 9 9 8 10 9 9 10 9
nan nan nan nan nan nan nan nan nan nan nan 17 26 34 31 30 28 28 27 26 22 20 16 17 18 15 11 10 9 5 6 7 5 4 13 15 17 15 12 9 nan nan 10 nan 10 nan 12 nan 11 11 7 6 4 3 2 3 2 5 4 3 nan nan nan nan nan nan 2 4 5 5 6 6 7 7 8 8 8 8 9 8 8 8 9 9 9 7 7 7 6 8 8 7 9 7 6 6 7
nan nan nan nan nan nan nan nan nan nan nan nan nan 17 33 30 22 27 30 28 24 20 13 14 18 16 11 10 8 7 9 9 8 5 10 14 15 16 14 11 9 10 12 nan 10 9 12 nan 13 11 10 6 4 1 2 3 2 3 4 5 4 nan nan nan nan nan nan 3 3 5 5 6 7 7 6 7 6 5 6 6 6 7 7 8 7 7 8 8 7 6 8 8 8 6 4 5 7
nan nan nan nan nan nan nan nan nan nan nan nan nan nan nan 27 22 22 29 26 22 17 10 10 15 16 11 10 10 10 9 8 8 6 6 14 16 15 12 11 10 12 11 10 10 10 13 12 13 13 11 8 4 3 1 1 3 2 3 4 5 5 3 nan 4 3 2 nan 1 4 5 5 6 7 6 6 5 3 4 3 3 4 6 6 7 8 9 8 7 6 7 7 9 5 5 5 4
nan nan nan nan nan nan nan nan nan nan nan nan nan nan nan nan 21 21 21 23 21 15 13 11 15 15 12 12 11 10 8 8 6 5 5 10 15 13 12 11 11 11 11 12 11 12 14 13 12 12 11 9 6 4 3 1 2 3 3 4 3 5 6 4 4 3 2 3 nan 4 3 4 5 6 5 5 4 3 3 2 3 4 4 5 7 8 8 6 7 7 7 8 6 4 5 5 5
nan nan nan nan nan nan nan nan nan nan nan nan nan nan nan nan 17 22 22 17 20 17 15 16 15 15 14 13 13 10 8 8 7 6 5 7 12 13 12 13 12 11 12 12 12 11 13 12 11 11 10 11 8 6 5 3 2 3 3 3 2 4 5 4 3 3 4 4 2 1 3 3 4 5 4 5 5 4 4 4 3 4 4 4 5 5 5 7 8 8 8 6 5 4 5 6 4
nan nan nan nan nan nan nan nan nan nan nan nan nan nan nan nan nan 17 19 19 24 22 20 19 17 16 16 14 14 13 11 9 8 8 8 8 9 9 12 14 13 11 10 12 11 12 12 12 11 11 11 11 9 6 6 5 4 3 4 4 2 2 4 5 3 2 2 2 1 1 1 1 3 4 3 3 5 4 4 4 3 4 4 3 4 4 2 7 7 7 7 7 6 6 5 4 4
nan nan nan nan nan nan nan nan nan nan nan nan nan nan nan nan nan nan 11 14 19 18 16 18 18 17 18 18 18 17 14 11 9 9 9 9 8 7 12 13 12 11 8 11 12 12 12 12 11 11 10 11 10 7 6 6 5 5 5 4 3 3 3 5 4 3 3 3 3 2 4 3 2 3 4 3 4 5 4 4 4 4 4 4 3 2 4 2 6 7 7 7 7 6 6 5 6
nan nan nan nan nan nan nan nan nan nan nan nan nan nan nan nan nan nan nan 16 18 19 14 16 20 21 19 18 20 19 16 12 8 8 9 10 9 7 10 10 10 10 9 10 10 11 12 12 11 9 9 10 11 9 7 6 6 6 6 5 4 3 4 5 6 5 3 4 4 3 4 5 4 5 5 5 5 6 5 5 5 3 3 3 3 4 4 2 2 5 7 7 7 7 6 7 7
nan nan nan nan nan nan nan nan nan nan nan nan nan nan nan nan nan nan nan nan nan 22 21 17 18 21 19 17 19 20 18 13 9 6 8 11 11 9 8 8 7 10 11 10 9 10 12 12 10 8 8 9 10 9 8 7 7 7 7 6 4 3 4 6 7 7 6 5 5 4 3 4 4 4 5 4 6 6 7 7 6 4 2 4 3 3 4 3 4 3 5 9 9 9 9 9 8
nan nan nan nan nan nan nan nan nan nan nan nan nan nan nan nan nan nan nan nan nan nan 24 24 18 19 19 12 14 17 16 14 11 11 10 11 12 10 6 5 6 8 12 11 11 10 12 12 11 9 8 8 8 9 7 7 8 8 8 7 5 4 4 6 8 9 8 7 6 5 4 4 3 3 3 3 6 6 7 7 6 6 4 4 5 5 5 6 6 7 8 8 8 9 10 9 9
nan nan nan nan nan nan nan nan nan nan nan nan nan nan nan nan nan nan nan nan nan nan nan 32 30 28 25 12 8 13 14 15 17 15 14 14 15 13 6 4 5 9 11 12 11 11 13 14 13 11 9 9 7 7 7 7 8 9 8 7 7 5 4 5 6 7 9 8 8 7 6 4 4 3 3 2 3 5 5 7 7 7 7 7 7 8 8 9 9 8 10 9 10 10 11 12 11
nan nan nan nan nan nan nan nan nan nan nan nan nan nan nan nan nan nan nan nan nan nan nan 37 42 38 32 17 10 12 12 15 19 17 16 16 16 14 9 4 6 9 12 11 11 12 13 14 14 13 11 9 8 8 8 8 8 8 9 8 7 6 5 5 6 7 8 9 9 8 7 7 6 5 4 2 2 2 4 6 6 7 8 8 8 9 9 9 8 9 10 10 10 11 10 12 12
nan nan nan nan nan nan nan nan nan nan nan nan nan nan nan nan nan nan nan nan nan nan nan 41 45 43 36 28 22 20 16 16 19 18 16 17 16 14 11 7 6 8 10 11 11 13 14 15 15 14 11 10 10 10 9 9 8 9 10 8 7 6 5 6 7 7 8 8 9 9 8 8 7 7 6 5 3 2 2 4 5 6 7 7 7 8 8 8 8 9 9 9 10 10 10 11 12
nan nan nan nan nan nan nan nan nan nan nan nan nan nan nan nan nan nan nan nan nan nan nan 39 42 39 34 32 34 34 28 22 21 20 15 15 15 15 13 9 8 8 8 9 12 13 16 16 16 14 12 11 10 8 8 6 6 8 9 10 8 6 6 6 7 8 8 8 9 9 8 8 8 8 8 7 5 3 2 2 3 4 5 6 6 6 7 7 7 8 8 9 10 10 10 10 11
nan nan nan nan nan nan nan nan nan nan nan nan nan nan nan nan nan nan nan nan nan nan nan 28 32 33 30 32 36 37 32 20 19 18 15 13 14 14 12 11 9 7 6 7 10 12 14 14 14 15 14 11 8 6 7 6 7 6 8 8 8 8 7 6 7 7 7 8 9 10 9 8 8 8 9 8 7 5 3 2 2 2 3 4 5 5 6 6 7 7 8 8 9 10 10 10 9
nan nan nan nan nan nan nan nan nan nan nan nan nan nan nan nan nan nan nan nan nan nan nan nan 26 30 25 25 29 36 31 20 15 15 14 12 13 12 12 12 10 7 6 7 8 9 11 13 13 13 12 10 8 6 6 7 7 7 6 7 8 9 8 7 7 7 8 8 9 10 10 9 9 8 9 9 8 6 4 3 2 1 1 2 4 4 5 5 7 7 8 7 8 10 11 11 9
Wind_Direction
nan nan nan nan nan 139 190 184 nan 239 189 nan 112 114 113 113 119 132 104 85 109 126 89 315 308 12 103 68 10 204 200 28 97 nan nan 23 342 347 20 350 1 29 36 54 62 71 85 63 21 352 354 350 351 347 340 330 331 348 337 330 330 311 25 17 334 52 86 104 131 138 129 120 123 139 140 95 100 148 196 274 271 250 258 271 292 297 293 271 261 263 263 275 280 269 263 255 250
nan nan nan nan 139 nan 148 174 156 143 81 102 94 109 118 115 119 110 95 98 115 87 52 82 279 96 89 17 335 279 187 183 271 310 300 334 326 342 7 350 6 18 39 54 70 87 98 88 42 15 26 8 5 357 349 344 344 5 359 7 338 299 43 146 244 108 100 113 106 129 145 133 146 190 127 84 55 12 282 273 280 300 331 347 345 332 317 292 279 271 279 307 287 282 286 291 281
nan nan nan nan 140 167 177 191 nan 158 137 121 132 121 132 137 120 115 115 104 91 89 26 32 6 11 34 17 225 250 101 233 283 271 312 334 326 11 350 1 12 12 20 65 80 94 106 91 48 37 27 9 6 357 360 358 2 9 1 353 351 150 186 201 166 178 299 87 14 215 182 222 213 294 346 11 347 300 292 288 303 320 347 355 1 350 343 318 293 313 321 295 290 306 312 300 303
nan nan nan nan 157 172 185 214 248 202 141 138 141 135 116 130 112 130 111 110 104 101 13 11 29 101 289 264 293 276 288 270 279 317 351 353 345 348 347 1 9 19 46 71 83 97 102 63 50 39 15 9 2 359 2 357 3 7 9 8 41 90 79 332 264 38 329 325 250 243 255 267 291 324 327 311 268 260 279 302 314 319 334 353 354 357 355 341 343 332 313 296 307 318 316 318 333
98 86 77 133 126 159 203 274 288 131 135 143 137 140 129 170 126 97 127 129 139 133 45 351 328 81 303 311 343 336 332 299 286 304 350 341 328 340 351 358 13 26 51 65 87 93 87 31 43 31 20 15 12 12 5 358 2 12 18 10 12 31 348 319 321 332 285 267 269 259 276 288 327 335 324 301 290 289 297 318 319 320 336 343 341 343 343 353 342 333 323 323 315 306 315 335 358
77 92 106 164 113 168 182 59 nan 98 112 132 122 139 179 134 97 129 83 131 126 89 33 333 337 341 293 236 277 307 329 332 356 315 343 346 330 341 348 359 22 33 60 96 93 97 84 36 28 28 24 18 17 14 6 4 5 13 16 10 309 208 164 307 299 280 276 272 274 277 283 310 334 324 311 296 299 307 317 321 319 322 326 334 333 346 343 340 329 319 332 335 341 313 306 355 10
77 99 131 168 134 155 115 nan 91 107 119 107 129 174 214 121 143 140 124 170 97 64 30 291 297 293 278 299 286 314 304 310 345 340 352 345 334 336 344 5 20 24 53 96 95 86 67 37 25 19 20 21 17 11 8 8 8 7 5 355 347 7 6 315 287 282 276 283 289 295 302 323 326 321 314 314 316 318 323 329 324 322 318 325 333 337 323 312 311 313 319 343 359 337 319 345 18
92 120 124 nan 131 118 97 nan 101 121 138 154 160 193 205 135 152 128 70 60 54 57 329 309 293 280 293 322 294 297 315 322 315 329 336 345 336 335 340 5 10 1 50 84 92 93 44 26 22 18 22 21 16 10 5 6 7 3 358 357 349 1 340 315 302 292 288 290 297 300 311 316 320 324 324 326 330 326 326 328 328 324 328 332 340 338 328 309 295 294 297 334 12 6 314 295 340
95 240 100 107 nan 98 102 101 118 126 128 143 161 217 169 142 182 107 124 85 317 360 281 295 312 284 311 299 301 318 292 303 320 332 341 339 339 329 352 353 353 18 21 76 88 85 75 29 20 15 19 19 14 8 2 4 6 360 354 350 344 344 338 321 311 300 301 302 302 302 310 318 326 328 329 332 332 330 330 332 333 333 332 332 341 349 330 314 303 296 292 323 29 25 275 275 296
156 65 79 107 nan 115 94 115 125 149 149 158 173 219 144 140 169 143 94 165 1 309 287 271 284 282 310 301 307 306 315 314 325 336 347 346 341 340 340 340 337 341 26 75 76 81 83 25 14 14 17 15 12 6 0 1 357 353 341 339 337 333 330 329 319 313 315 314 306 309 312 325 329 332 331 335 336 337 338 343 340 334 332 339 359 6 344 339 323 312 307 322 61 116 281 290 328
177 135 78 nan nan nan nan 136 132 140 154 157 186 200 175 176 134 118 116 73 247 277 278 283 275 291 299 306 297 310 311 324 335 342 354 352 337 339 345 338 333 344 12 30 59 75 70 67 5 11 15 14 11 4 359 356 348 342 336 336 337 332 334 332 327 325 330 327 323 320 321 327 333 335 338 343 341 346 351 352 345 335 342 359 12 22 11 9 8 346 331 24 87 101 89 4 348
151 115 352 137 nan nan 123 138 133 137 142 163 183 180 158 187 126 111 99 7 323 304 307 316 291 303 298 312 321 323 324 330 334 343 347 338 349 344 321 331 338 354 4 22 50 73 77 71 67 17 9 13 9 1 356 352 349 348 340 340 341 335 333 327 327 330 337 338 329 320 324 329 333 338 338 344 351 355 359 358 359 1 5 17 27 33 37 26 25 34 35 47 52 64 74 57 357
153 38 352 211 5 60 121 128 128 140 155 168 164 157 212 189 119 90 106 336 343 309 285 279 306 305 313 324 336 329 335 338 341 352 345 352 358 333 312 336 343 350 4 28 39 68 73 93 78 69 40 10 9 2 354 352 358 354 346 344 341 332 327 330 331 335 339 336 326 325 331 340 341 345 350 351 357 3 1 2 16 17 24 32 34 42 48 47 45 48 50 48 47 53 56 57 360
176 339 345 65 20 72 107 117 128 161 164 154 162 164 204 154 139 133 132 270 282 280 290 307 300 307 294 318 347 341 341 344 340 338 346 351 359 327 330 352 343 346 4 25 58 62 78 78 82 75 61 69 64 24 360 355 1 358 352 349 342 338 338 341 342 344 347 337 333 334 338 344 350 359 4 7 4 4 7 8 21 30 30 36 39 47 53 57 60 59 62 65 67 72 83 78 36
220 234 314 23 53 68 57 121 152 161 152 154 163 165 182 150 160 175 175 119 139 334 318 300 303 317 347 341 357 352 347 343 339 336 338 348 342 341 336 336 346 5 23 26 48 57 64 70 67 78 84 84 81 88 86 36 360 357 355 356 355 352 354 354 354 357 348 342 336 328 341 2 6 11 12 14 14 8 11 21 18 30 32 32 37 43 50 54 60 63 66 71 73 77 83 86 63
237 236 231 90 83 64 52 16 142 137 138 131 186 189 173 151 180 204 153 117 34 348 285 301 343 10 338 347 342 340 342 339 337 329 329 343 348 344 319 335 11 14 57 50 57 75 71 70 75 80 83 83 88 89 86 79 22 356 359 4 7 5 8 12 6 2 349 352 341 342 8 44 45 50 14 42 22 15 17 37 25 24 27 28 34 40 45 52 59 66 70 74 79 78 81 82 64
245 225 216 79 112 59 61 11 305 120 154 160 211 187 157 148 171 177 147 115 46 346 311 337 310 317 338 340 340 334 338 341 336 328 329 355 17 357 7 14 45 67 82 74 89 93 76 61 67 82 78 75 80 88 92 89 54 5 18 10 9 10 21 17 18 3 8 10 11 18 61 92 93 85 79 75 45 60 31 19 24 21 22 24 29 37 45 51 56 67 79 84 83 81 77 82 83
239 220 236 67 49 98 29 339 288 324 231 194 219 156 170 161 160 127 89 77 46 337 320 294 313 329 320 333 340 330 335 343 337 333 331 343 36 13 26 6 20 56 70 92 107 89 81 81 68 68 81 79 82 93 95 93 85 59 86 79 76 54 44 40 73 89 77 99 60 82 82 84 85 89 81 59 73 55 44 17 19 19 19 20 23 31 40 44 47 60 75 83 86 86 98 96 91
nan 228 232 89 349 78 317 301 282 257 264 233 7 68 96 70 206 65 37 44 352 357 336 354 337 314 319 340 333 329 337 345 nan nan 332 338 356 348 8 32 26 30 67 98 108 74 96 95 81 74 83 74 73 88 93 95 92 97 94 91 87 71 73 87 96 95 105 97 94 87 83 78 79 77 71 52 60 31 34 21 19 19 18 20 23 21 31 39 48 58 69 78 89 91 87 87 91
nan nan nan 124 40 244 319 311 272 278 297 347 8 354 85 214 56 165 105 3 4 349 350 337 322 319 334 337 335 331 336 347 nan nan nan 336 340 344 351 10 22 35 34 73 94 111 99 98 82 83 71 71 86 99 101 97 100 99 98 102 102 101 98 95 102 103 99 91 83 80 78 75 73 68 33 17 31 58 43 25 21 18 19 23 23 48 34 41 51 67 79 91 96 93 83 85 87
nan nan nan 218 320 306 353 326 258 267 333 319 325 271 138 44 97 127 189 313 109 21 341 324 325 326 333 334 335 341 334 349 nan nan nan 337 340 349 8 15 26 24 32 60 111 102 91 89 95 85 75 92 103 108 99 98 100 102 104 102 101 97 96 100 104 100 91 81 78 78 80 75 70 70 70 68 59 54 63 71 75 73 68 73 57 65 65 64 68 69 79 84 89 95 97 91 92
nan nan nan 272 292 300 339 342 287 26 311 267 266 259 195 236 284 112 197 290 40 33 320 320 325 327 329 335 338 346 334 343 nan nan nan nan 337 345 8 16 17 12 360 25 65 89 96 91 88 84 84 101 104 104 96 95 94 97 101 96 95 95 93 92 91 85 94 103 96 94 103 98 71 75 79 63 62 70 78 72 73 73 73 69 63 55 59 65 73 66 73 76 85 92 92 99 100
nan nan nan 269 283 275 332 345 349 338 nan 311 285 234 195 222 257 193 184 78 88 156 334 318 329 330 331 329 335 338 337 339 nan nan nan nan 327 337 360 27 14 17 17 17 37 111 111 105 89 78 83 95 89 95 95 95 95 94 94 89 87 86 84 81 75 93 94 85 98 97 79 82 76 73 67 66 62 62 64 66 70 74 70 66 66 66 56 67 71 64 70 78 87 94 97 99 99
nan nan 234 290 302 273 315 346 343 326 312 322 322 349 309 319 283 198 157 92 87 84 322 315 319 325 327 326 nan 335 337 337 342 nan nan 338 331 336 360 20 28 12 17 358 6 35 83 55 69 81 87 81 87 84 86 86 96 90 82 77 76 73 75 70 76 76 106 113 93 81 70 78 72 59 59 62 69 69 65 67 69 75 76 77 73 78 71 79 75 84 88 88 95 100 103 101 101
nan nan nan 249 287 nan 286 298 319 317 326 316 302 320 331 304 295 319 47 61 57 74 314 311 322 324 326 330 337 324 324 331 346 345 nan nan 332 330 347 42 21 16 1 2 356 360 26 37 51 69 82 79 83 74 79 85 91 93 83 77 70 67 70 67 68 59 134 107 89 76 71 69 69 67 62 59 65 67 67 70 72 74 78 77 71 73 76 88 96 104 106 104 103 106 108 109 109
nan nan nan nan nan nan 273 273 299 316 293 316 294 283 301 330 315 342 358 26 29 333 317 313 319 322 328 334 336 324 324 328 347 350 nan nan nan 327 339 3 12 22 9 1 349 6 7 36 43 51 68 74 81 68 84 84 87 88 78 77 69 71 69 59 37 78 85 91 97 86 70 65 59 58 61 60 54 57 64 74 75 72 70 71 66 66 71 81 99 109 108 109 111 108 109 109 111
nan nan nan nan nan 262 284 282 271 283 272 270 282 293 314 5 348 305 337 337 357 316 325 323 319 324 326 328 327 327 321 328 347 353 343 nan nan nan 333 332 7 12 8 11 354 357 358 26 52 48 66 73 83 71 78 79 88 75 75 80 73 72 70 56 27 35 61 91 84 82 83 77 61 53 58 59 60 63 70 74 71 70 69 66 69 75 80 88 99 106 109 109 108 109 109 108 106
nan nan nan nan nan nan 289 294 276 276 269 291 296 287 276 248 306 283 306 314 314 329 327 329 318 321 323 326 323 320 322 329 339 353 341 356 nan nan nan 323 353 348 10 14 8 346 351 18 27 42 52 66 74 52 66 69 74 65 62 64 66 71 67 44 25 45 51 74 80 79 78 72 68 55 56 61 59 65 71 70 70 69 70 71 76 75 75 83 90 101 110 109 105 104 105 104 103
nan nan nan nan nan nan 296 288 282 274 260 289 280 263 269 290 276 302 301 305 320 334 330 326 314 315 321 322 315 318 334 326 325 350 341 343 nan nan nan nan 319 339 37 10 4 342 351 9 24 39 47 59 65 33 49 53 53 51 48 61 66 68 67 30 30 51 51 64 77 77 78 71 74 67 68 66 67 70 70 69 71 72 72 70 72 75 75 84 95 104 108 106 104 99 100 102 101
nan nan nan nan nan nan nan nan 291 283 279 288 278 270 287 314 349 315 304 300 303 316 325 317 310 316 320 313 306 327 330 321 314 352 338 nan nan nan nan nan 310 325 7 18 7 343 358 28 46 57 52 42 62 26 40 43 45 34 44 59 66 69 90 40 38 56 55 61 76 79 76 76 77 79 77 75 74 73 71 71 73 74 76 76 73 73 79 91 98 102 102 102 98 98 97 96 94
nan nan nan nan nan nan nan nan 296 285 297 285 271 263 257 306 332 308 311 305 306 310 320 308 313 317 311 309 309 329 319 326 320 332 327 nan nan nan nan nan nan nan 260 326 4 348 357 352 40 57 58 49 65 10 19 24 47 25 40 55 63 76 74 54 39 57 63 63 74 78 75 80 80 75 77 74 72 74 72 73 72 73 76 82 81 88 90 94 98 98 98 97 100 100 97 92 89
nan nan nan nan nan nan nan nan nan 289 292 298 273 250 262 293 301 307 303 304 308 307 312 302 301 307 299 303 312 331 315 329 334 330 334 nan nan nan nan nan nan nan 300 320 351 344 344 324 20 28 51 46 75 8 30 29 31 42 54 49 64 85 78 71 51 48 65 65 67 72 76 80 76 72 72 75 73 75 74 76 75 77 79 79 80 84 88 93 93 91 88 91 100 101 97 94 88
nan nan nan nan nan nan nan nan nan 296 301 309 298 273 270 278 303 304 290 300 289 305 309 308 300 314 299 296 311 321 314 326 339 328 327 nan nan nan nan nan nan nan nan nan nan nan 303 323 347 355 30 31 31 1 27 31 27 52 47 48 63 84 78 82 77 60 60 72 76 73 75 78 78 76 78 78 80 76 78 79 79 81 77 76 75 79 81 80 86 92 96 94 91 91 93 90 92
nan nan nan nan nan nan nan nan nan 303 301 303 307 281 302 296 297 294 294 290 288 289 283 299 291 301 290 288 305 316 310 316 342 nan nan nan nan nan nan nan nan nan nan nan nan nan 316 318 316 354 26 32 9 2 29 24 34 42 46 59 74 79 71 85 89 90 72 76 83 87 82 84 82 83 82 83 89 90 90 88 85 84 81 76 76 75 76 77 83 87 94 95 89 81 85 88 89
nan nan nan nan nan nan nan nan nan 317 310 301 304 292 315 308 303 294 290 288 292 279 288 298 297 292 279 285 297 314 318 307 327 nan nan nan 299 nan nan nan nan nan nan nan nan nan 299 296 293 346 24 20 354 353 15 37 39 52 48 62 73 80 74 82 99 99 93 86 87 86 89 90 90 92 87 90 90 94 102 95 88 88 87 85 80 73 77 83 81 84 87 88 81 80 79 84 81
nan nan nan nan nan nan nan nan nan nan nan 296 308 308 304 305 302 290 290 284 287 260 272 278 286 284 275 279 292 304 311 309 302 nan 299 277 274 283 268 nan nan nan nan nan nan nan nan 278 296 311 32 13 326 334 7 32 49 50 41 63 78 87 87 86 85 89 97 90 84 83 85 88 92 89 88 92 98 104 101 97 95 97 94 91 89 78 78 79 82 81 82 86 91 88 84 90 97
nan nan nan nan nan nan nan nan nan nan nan 288 303 300 302 305 304 300 293 295 290 270 250 277 277 274 259 275 272 302 307 311 308 305 301 282 271 289 nan nan nan nan nan nan nan nan nan nan 298 312 319 250 308 336 16 30 nan 71 nan nan nan nan 92 89 75 84 82 79 74 82 83 88 87 90 93 98 103 103 101 97 101 103 100 95 91 87 77 78 78 84 83 86 94 108 106 110 106
nan nan nan nan nan nan nan nan nan nan nan 285 301 294 297 307 315 305 291 290 282 293 297 286 283 266 253 264 263 248 262 290 306 299 306 294 267 nan nan nan nan nan nan nan nan nan nan 265 296 296 249 256 306 350 15 43 nan 70 nan nan nan nan 80 73 78 77 73 75 71 76 81 80 81 87 94 100 102 105 102 102 102 93 96 93 97 97 95 95 98 101 98 105 105 105 101 102 104
nan nan nan nan nan nan nan nan nan nan 284 290 301 295 294 304 308 311 306 292 285 288 283 284 287 273 261 266 268 265 258 245 308 307 314 302 289 299 nan nan nan nan nan nan nan nan nan 246 267 277 259 274 292 342 36 64 74 92 87 nan nan nan 101 86 nan 68 58 59 65 64 68 76 74 80 83 88 93 95 92 89 88 91 93 95 98 99 101 104 99 102 103 104 111 105 100 97 98
nan nan nan nan nan nan nan nan nan nan 261 284 294 288 285 285 294 302 302 298 286 288 288 280 277 284 281 276 271 270 259 264 252 321 320 311 298 284 nan nan nan nan nan nan nan nan nan 224 252 266 267 274 299 31 75 84 68 97 95 69 nan nan nan nan nan 107 60 53 60 64 69 66 70 72 71 77 84 84 80 76 80 82 82 85 81 86 91 92 97 101 108 106 105 106 106 102 102
nan nan nan nan nan nan nan nan nan nan nan 290 279 271 277 284 292 302 302 295 282 283 286 282 279 277 274 260 262 267 269 266 282 316 319 316 308 292 263 267 nan nan nan nan nan nan nan 229 256 261 263 276 293 14 72 88 93 115 111 115 129 nan nan nan nan 146 69 77 70 78 69 62 63 66 65 68 73 72 77 79 72 75 76 77 74 79 76 77 88 94 94 99 98 101 108 98 103
nan nan nan nan nan nan nan nan nan nan nan 266 276 262 276 288 304 308 301 290 283 280 287 287 284 282 278 285 278 256 245 270 308 334 327 321 318 298 267 279 nan nan nan nan 255 nan nan 230 247 250 250 254 294 9 70 107 84 108 113 123 154 nan nan nan nan nan 78 82 70 82 88 69 66 72 72 68 69 65 68 73 75 73 75 73 74 72 75 84 82 90 85 82 89 87 93 111 111
nan nan nan nan nan nan nan nan nan nan nan 225 279 273 267 282 296 306 308 305 298 277 278 286 284 282 286 277 259 254 298 305 308 327 327 323 325 317 298 290 nan nan 251 nan 241 nan 247 nan 248 251 251 246 259 3 63 153 110 126 117 107 nan nan nan nan nan nan 78 88 97 86 88 92 85 81 73 75 79 59 62 66 67 68 62 63 70 70 72 80 72 80 87 78 73 87 99 114 90
nan nan nan nan nan nan nan nan nan nan nan nan nan 244 263 275 290 307 311 308 298 290 283 285 284 285 291 269 263 276 302 303 316 329 330 327 322 324 317 300 283 266 257 nan 244 246 250 nan 246 253 244 255 246 265 57 149 155 150 142 145 175 nan nan nan nan nan nan 87 81 81 95 95 87 97 93 78 80 70 57 47 52 59 61 65 66 63 63 70 74 84 91 81 94 92 93 94 99
nan nan nan nan nan nan nan nan nan nan nan nan nan nan nan 263 283 297 296 296 294 292 285 277 279 287 292 290 289 294 290 287 304 323 332 327 320 318 313 299 287 271 269 270 253 247 241 245 241 247 251 259 259 299 341 153 186 172 172 155 175 153 163 nan 142 179 110 nan 70 78 83 82 78 81 95 69 81 75 60 54 55 58 57 64 64 60 60 48 52 55 72 80 77 85 78 77 78
nan nan nan nan nan nan nan nan nan nan nan nan nan nan nan nan 276 273 286 303 311 312 311 307 300 296 295 292 289 292 269 254 281 318 325 316 316 313 318 316 308 287 278 265 256 247 243 246 245 252 254 258 261 294 309 298 225 222 212 182 163 170 182 177 174 198 192 100 nan 53 65 68 71 67 73 63 52 44 32 28 38 47 51 49 54 51 50 36 43 45 47 55 55 70 76 78 63
nan nan nan nan nan nan nan nan nan nan nan nan nan nan nan nan 249 281 283 310 339 321 300 302 308 307 302 290 290 290 276 266 271 303 318 303 306 317 325 336 335 308 277 282 275 271 257 259 259 253 258 249 264 289 297 319 273 263 264 235 165 191 193 207 199 189 184 193 95 67 38 53 54 54 46 36 26 10 9 7 2 17 34 56 52 43 26 21 30 25 28 29 38 40 62 66 78
nan nan nan nan nan nan nan nan nan nan nan nan nan nan nan nan nan 273 303 332 337 329 329 321 321 318 303 288 282 291 290 267 276 292 310 300 283 305 326 339 342 330 301 304 292 282 272 264 266 265 254 255 256 277 292 297 286 285 279 285 299 208 224 212 232 221 184 196 158 318 340 332 37 50 36 356 15 354 353 358 349 350 8 28 45 51 40 8 17 13 13 16 17 27 44 36 51
nan nan nan nan nan nan nan nan nan nan nan nan nan nan nan nan nan nan 267 305 324 327 328 332 324 318 312 301 295 287 277 261 262 272 291 297 306 308 324 333 340 343 322 322 308 292 279 271 276 278 271 264 255 265 286 294 292 290 290 304 292 258 251 237 234 235 209 207 212 240 270 326 349 18 34 0 359 359 341 344 355 359 0 7 11 10 64 3 17 14 12 16 8 19 29 34 42
nan nan nan nan nan nan nan nan nan nan nan nan nan nan nan nan nan nan nan 302 313 317 324 336 332 328 318 307 294 282 272 264 260 257 275 298 305 308 318 322 337 345 337 327 316 291 276 271 278 288 278 270 259 259 269 279 293 291 294 298 293 276 269 255 239 242 230 214 226 242 273 309 343 4 11 12 1 0 352 354 3 6 351 357 351 7 37 29 6 6 15 21 26 27 33 34 38
nan nan nan nan nan nan nan nan nan nan nan nan nan nan nan nan nan nan nan nan nan 310 307 315 332 332 320 308 299 288 275 270 264 261 274 288 301 296 303 318 335 342 341 336 321 300 283 273 276 284 267 261 260 261 259 277 270 279 283 292 292 266 270 256 251 245 249 246 230 245 255 280 317 355 360 359 7 4 1 1 7 22 358 6 3 15 34 44 48 55 52 46 43 40 40 40 46
nan nan nan nan nan nan nan nan nan nan nan nan nan nan nan nan nan nan nan nan nan nan 306 289 308 317 305 296 310 297 290 287 278 280 287 280 278 280 284 317 329 339 343 337 335 307 292 284 281 279 273 263 256 255 253 265 266 264 277 287 298 286 253 254 250 244 252 260 258 260 258 277 308 310 318 322 9 9 7 11 18 34 42 38 47 56 71 71 75 73 82 76 57 56 48 52 58
nan nan nan nan nan nan nan nan nan nan nan nan nan nan nan nan nan nan nan nan nan nan nan 296 293 296 298 300 323 313 306 301 295 292 290 281 267 269 292 313 327 336 338 339 335 315 295 279 273 268 259 244 246 247 252 251 256 263 274 285 287 277 274 273 267 271 272 270 270 270 273 284 290 282 280 302 344 17 20 20 33 47 58 68 68 74 75 80 78 76 69 74 70 67 54 56 64
nan nan nan nan nan nan nan nan nan nan nan nan nan nan nan nan nan nan nan nan nan nan nan 288 286 288 291 292 308 317 308 304 302 298 292 284 275 284 279 291 317 327 333 334 325 307 288 280 278 276 263 257 241 233 229 230 244 255 263 279 288 294 291 283 271 277 272 271 276 278 281 275 286 293 300 302 341 5 30 34 46 59 71 73 74 76 75 73 69 66 65 63 65 67 66 63 60
nan nan nan nan nan nan nan nan nan nan nan nan nan nan nan nan nan nan nan nan nan nan nan 272 279 282 285 285 299 306 304 297 296 299 285 275 279 284 283 285 299 311 323 325 313 311 299 287 285 285 283 268 257 234 224 219 229 232 244 269 287 291 285 280 272 276 276 279 289 290 296 300 291 292 297 303 337 18 24 55 55 65 74 72 75 71 66 67 61 57 59 57 62 63 67 64 62
nan nan nan nan nan nan nan nan nan nan nan nan nan nan nan nan nan nan nan nan nan nan nan 264 279 282 282 286 288 283 287 292 294 292 282 283 286 291 291 290 292 304 315 317 322 318 318 304 292 285 276 266 262 259 250 244 239 234 239 249 264 276 283 283 279 283 288 291 290 293 296 293 298 287 299 307 321 358 2 34 63 61 67 74 71 66 55 56 55 50 48 50 54 57 63 63 63
nan nan nan nan nan nan nan nan nan nan nan nan nan nan nan nan nan nan nan nan nan nan nan 257 277 280 282 285 280 277 282 288 291 282 281 288 288 284 282 281 280 288 305 316 320 322 317 310 303 296 292 287 282 270 260 253 248 250 253 263 274 276 285 274 276 284 293 295 290 292 295 289 281 283 287 300 307 332 339 347 15 55 56 66 62 60 53 43 47 46 46 43 47 48 52 61 60
nan nan nan nan nan nan nan nan nan nan nan nan nan nan nan nan nan nan nan nan nan nan nan nan 273 267 278 274 275 276 275 277 282 282 291 293 291 289 276 268 262 274 304 321 311 306 312 323 319 306 297 290 286 270 252 249 245 250 262 263 270 269 277 275 286 285 290 291 289 289 293 286 288 289 279 293 302 301 307 314 305 327 14 29 41 43 35 28 32 35 41 45 45 42 44 50 52